Content
SEND FEEDBACK

Daily
Averages
Monthly
Summary
United States of America

RAPID CITY, SOUTH DAKOTA


Home > North America > United States > South Dakota
Elevation: 3162 feet     Latitude: 44 03N     Longitude: 103 04W

WEATHER
 
SELECT A DAY
Number of Records: 204,958;   Date Range: 1/1/95 - 12/17/14
 
SHARE

PRINT THIS DATA

[ ← Previous Day ]
WEATHER ALMANAC - MAY 19, 2013
[ Next Day → ]
[ °C ]   °F
Weather ElementAverageHighLow
Temperature55.1 °F59 °F (11:33 am)51.1 °F (11:52 pm)
Dewpoint51.7 °F55.4 °F (11:33 am)46 °F (10:52 pm)
Humidity88.6 %94 % (1:07 am)80 % (10:52 pm)
Barometer29.71 in29.76 in (2:18 am)29.65 in (11:52 pm)
Wind Speed18.9 mph28.8 mph (7:21 pm)
Wind Gust36.8 mph (8:07 pm)
Weather ElementAverage
Visibility8.7 mi
Wind DirectionNNW (335 °)

Weather ElementTotal
Precipitation0.39 in
Heating Degree Days10 (Base 65)
Growing Degree Days5.1 (Base 50)
Averaged from 58 records on May 19, 2013
WEATHER CONDITIONS BREAKOUT
WIND DIRECTION BREAKOUT
WEATHER BY HOUR - MAY 19, 2013
[ °C ]   °F
Local TimeTemperatureDewpointHumidityBarometerVisibilityWind DirectionWind SpeedGust SpeedPrecipitationEventsConditions
1:07 AM55.4 °F53.6 °F94 %29.73 in10.0 miNNW (330°)19.6 mph0.00 inOvercast
1:11 AM55.4 °F53.6 °F94 %29.73 in10.0 miNNW (330°)18.4 mph0.00 inOvercast
1:52 AM55.0 °F53.1 °F93 %29.70 in10.0 miNNW (340°)19.6 mph0.00 inOvercast
2:04 AM55.4 °F53.6 °F94 %29.75 in10.0 miNNW (340°)17.3 mphMostly Cloudy
2:18 AM55.4 °F53.6 °F94 %29.76 in10.0 miNNW (330°)16.1 mphMostly Cloudy
2:52 AM55.0 °F53.1 °F93 %29.71 in10.0 miNorth (350°)18.4 mph25.3 mph0.00 inRainLight Rain
3:12 AM55.4 °F53.6 °F94 %29.75 in10.0 miNNW (340°)16.1 mph0.01 inRainLight Rain
3:52 AM55.0 °F52.0 °F89 %29.68 in10.0 miNW (320°)13.8 mph0.03 inRainLight Rain
4:52 AM54.0 °F52.0 °F93 %29.70 in10.0 miNorth (350°)8.1 mph0.01 inRainLight Rain
5:45 AM55.4 °F51.8 °F88 %29.74 in10.0 miNorth (350°)15.0 mph0.00 inOvercast
5:52 AM55.0 °F52.0 °F89 %29.70 in10.0 miNorth (360°)13.8 mph0.00 inOvercast
6:52 AM55.0 °F52.0 °F89 %29.71 in10.0 miNorth (350°)12.7 mph0.01 inOvercast
7:33 AM55.4 °F51.8 °F88 %29.74 in10.0 miNorth (350°)10.4 mphOvercast
7:52 AM55.9 °F53.1 °F90 %29.71 in10.0 miNNW (340°)9.2 mphOvercast
8:00 AM55.4 °F53.6 °F94 %29.74 in10.0 miNNW (330°)10.4 mphOvercast
8:52 AM55.9 °F53.1 °F90 %29.70 in6.0 miNNW (330°)10.4 mphOvercast
9:30 AM55.4 °F53.6 °F94 %29.72 in3.0 miNW (320°)13.8 mph0.01 inRainLight Rain
9:39 AM55.4 °F53.6 °F94 %29.73 in2.0 miNW (310°)11.5 mph0.02 inRainLight Rain
9:52 AM55.9 °F53.1 °F90 %29.70 in2.0 miNNW (330°)8.1 mph0.03 inRainLight Rain
9:59 AM55.4 °F53.6 °F94 %29.72 in10.0 miNNW (330°)17.3 mph21.9 mph0.00 inRainLight Rain
10:36 AM55.4 °F53.6 °F94 %29.72 in10.0 miNNW (330°)17.3 mph27.6 mph0.00 inRainLight Rain
10:52 AM57.0 °F54.0 °F89 %29.70 in6.0 miNNW (330°)18.4 mph0.00 inRainLight Rain
10:59 AM57.2 °F53.6 °F88 %29.72 in7.0 miNNW (330°)17.3 mph23.0 mph0.00 inRainLight Rain
11:09 AM57.2 °F53.6 °F88 %29.71 in10.0 miNNW (330°)19.6 mph24.2 mph0.00 inRainLight Rain
11:33 AM59.0 °F55.4 °F88 %29.70 in9.0 miNNW (340°)21.9 mph28.8 mph0.00 inRainLight Rain
11:52 AM57.9 °F54.0 °F87 %29.68 in10.0 miNNW (340°)23.0 mph28.8 mph0.00 inOvercast
12:26 PM59.0 °F53.6 °F82 %29.70 in10.0 miNNW (330°)25.3 mph32.2 mph0.00 inRainLight Rain
12:52 PM57.0 °F54.0 °F89 %29.68 in8.0 miNNW (330°)21.9 mph31.1 mph0.00 inRainLight Rain
1:05 PM55.4 °F53.6 °F94 %29.71 in3.0 miNNW (340°)20.7 mph26.5 mph0.02 inRainRain
1:52 PM55.9 °F54.0 °F93 %29.69 in3.0 miNNW (330°)12.7 mph0.11 inRainLight Rain
2:08 PM55.4 °F53.6 °F94 %29.71 in4.0 miNNW (340°)15.0 mph0.03 inRainLight Rain
2:16 PM57.2 °F53.6 °F88 %29.71 in10.0 miNNW (330°)12.7 mph0.03 inRainLight Rain
2:25 PM57.2 °F55.4 °F94 %29.70 in10.0 miNNW (330°)13.8 mph0.03 inRainLight Rain
2:45 PM59.0 °F53.6 °F82 %29.70 in6.0 miNorth (350°)20.7 mph25.3 mph0.03 inHaze
2:52 PM57.2 °F53.6 °F88 %29.70 in4.0 miNorth (350°)18.4 mphOvercast
2:54 PM57.2 °F53.6 °F88 %29.70 in5.0 miNorth (350°)16.1 mph0.00 inRainRain
3:22 PM57.2 °F53.6 °F88 %29.70 in10.0 miNNW (340°)19.6 mph27.6 mph0.01 inOvercast
3:52 PM57.0 °F53.1 °F87 %29.68 in10.0 miNorth (350°)19.6 mph28.8 mph0.01 inOvercast
4:22 PM55.4 °F51.8 °F88 %29.71 in10.0 miNorth (350°)21.9 mph28.8 mphOvercast
4:52 PM55.9 °F51.1 °F84 %29.69 in10.0 miNNW (340°)18.4 mphOvercast
5:16 PM55.4 °F51.8 °F88 %29.70 in10.0 miNorth (350°)19.6 mph27.6 mphOvercast
5:45 PM55.4 °F50.0 °F82 %29.70 in10.0 miNorth (350°)18.4 mph27.6 mphOvercast
5:52 PM55.0 °F50.0 °F83 %29.69 in10.0 miNNW (340°)19.6 mph27.6 mphOvercast
6:10 PM53.6 °F50.0 °F88 %29.70 in10.0 miNNW (340°)25.3 mph31.1 mphOvercast
6:52 PM54.0 °F48.9 °F83 %29.69 in10.0 miNNW (330°)25.3 mph34.5 mphOvercast
7:14 PM53.6 °F48.2 °F82 %29.71 in10.0 miNNW (330°)19.6 mph32.2 mphOvercast
7:21 PM51.8 °F50.0 °F94 %29.72 in8.0 miNNW (330°)28.8 mph34.5 mph0.00 inRainLight Rain
7:31 PM51.8 °F48.2 °F88 %29.72 in10.0 miNNW (330°)24.2 mph32.2 mph0.00 inOvercast
7:52 PM52.0 °F48.9 °F89 %29.71 in10.0 miNNW (330°)23.0 mph34.5 mph0.00 inOvercast
8:07 PM51.8 °F46.4 °F82 %29.72 in10.0 miNNW (330°)26.5 mph36.8 mphOvercast
8:34 PM51.8 °F48.2 °F88 %29.71 in10.0 miNW (320°)26.5 mph33.4 mphOvercast
8:52 PM52.0 °F48.0 °F86 %29.71 in10.0 miNNW (330°)23.0 mph33.4 mphOvercast
9:36 PM51.8 °F46.4 °F82 %29.72 in10.0 miNNW (330°)25.3 mph36.8 mphOvercast
9:52 PM52.0 °F46.9 °F83 %29.72 in10.0 miNW (320°)27.6 mph35.7 mphOvercast
10:13 PM51.8 °F46.4 °F82 %29.71 in10.0 miNW (320°)26.5 mph34.5 mphOvercast
10:52 PM52.0 °F46.0 °F80 %29.68 in10.0 miNW (320°)26.5 mph32.2 mphOvercast
11:32 PM51.8 °F46.4 °F82 %29.67 in10.0 miNW (320°)26.5 mph34.5 mphMostly Cloudy
11:52 PM51.1 °F46.0 °F83 %29.65 in10.0 miNW (320°)27.6 mph34.5 mphMostly Cloudy
Hourly data recorded from KRAP, located miles away from Rapid City, South Dakota







STORIES FROM OUR PARTNERS